Location: Acton
(51.4942°N, 0.2232°W)
Time: 14:12:01
(UTC+00:00)

Okean 1-7 Rocket - Pass Details

Date: 21 January 2021
Orbit: 615 x 650 km, 82.5° (Epoch: 28 February)

Event Time Altitude Azimuth Distance (km) Brightness Sun altitude
Rises 19:35:38 0° 227° (SW) 2,953 7.6 -28.2°
Reaches altitude 10° 19:38:17 10° 242° (WSW) 2,051 6.9 -28.6°
Maximum altitude 19:41:54 23° 294° (WNW) 1,395 6.0 -29.2°
Drops below altitude 10° 19:45:33 10° 347° (NNW) 2,069 6.4 -29.7°
Enters shadow 19:47:09 - 357° (N) 2,591 6.8 -30.0°
